Location: Madrid
(40.4000°N, 3.6830°W)
Time: 01:17:29
(UTC+02:00)

ISS - Pass Details

Date: 14 July 2019
Orbit: 409 x 418 km, 51.6° (Epoch: 23 July)

Event Time Altitude Azimuth Distance (km) Brightness Sun altitude
Rises 04:43:49 0° 310° (NW) 2,345 0.1 -19.5°
Reaches altitude 10° 04:46:44 10° 338° (NNW) 1,481 -0.6 -19.2°
Maximum altitude 04:48:30 14° 10° (N) 1,281 -0.4 -19.0°
Drops below altitude 10° 04:50:16 10° 43° (NE) 1,477 0.3 -18.8°
Sets 04:53:10 0° 71° (ENE) 2,336 1.0 -18.4°
